BEIDOU-3 M14

Last updated on Tue Sep 22 2026 00:03:02 GMT+0000 (Coordinated Universal Time)

1 43623U 18072B 26263.97928976 -.00000003 00000+0 00000+0 0 9994 2 43623 56.7146 59.4980 0003474 24.8511 335.1874 1.86231246 54433
UTC large
Height (km)
Speed (km/s)
/
Latitude / Longitude
Inclination (degrees)
Orbital Period (minutes)
Azimuth
Elevation
Range (km)
Doppler Factor

Next 0 passes for location: London (51.5072 / 0.1276)

No passes found over London.
BEIDOU-3 M14